Regional Weather Roundup
Issued by NWS

Home | Current Version | Previous Version | Graphics & Text | Print | Product List | Glossary Off
Versions: 1 2 3 4 5 6 7 8 9 10 11 12 13 14 15 16 17 18 19 20 21 22 23 24 25 26 27 28 29 30 31 32 33 34 35 36 37 38 39 40 41 42 43 44 45 46 47 48 49 50

000
ASUS43 KMKX 240621
RWRWI

WISCONSIN REGIONAL WEATHER ROUNDUP
NATIONAL WEATHER SERVICE MILWAUKEE/SULLIVAN WI
100 AM CDT SAT JUN 24 2017

NOTE: "FAIR" INDICATES FEW OR NO CLOUDS BELOW 12,000 FEET WITH NO
SIGNIFICANT WEATHER AND/OR OBSTRUCTIONS TO VISIBILITY.

WIZ001-002-006>008-014>016-023>028-240700-
NORTHWEST WISCONSIN

CITY           SKY/WX    TMP DP  RH WIND       PRES   REMARKS
SUPERIOR ARPT  NOT AVBL
ASHLAND        CLOUDY    58  51  78 W13       29.84R
6HR MIN TEMP:  58; 6HR MAX TEMP:  70;

HAYWARD        CLOUDY    56  52  86 W5        29.88R
6HR MIN TEMP:  56; 6HR MAX TEMP:  61; 6HR PCP:  0.09;

SIREN          MOCLDY    54  49  85 CALM      29.92R
6HR MIN TEMP:  54; 6HR MAX TEMP:  63;

CUMBERLAND     CLOUDY    55  46  71 NW9       29.91R
RICE LAKE      CLOUDY    58  49  71 W9        29.92R
6HR MIN TEMP:  58; 6HR MAX TEMP:  64;

CHETEK         CLOUDY    59  52  77 NW8       29.90R
6HR MIN TEMP:  59; 6HR MAX TEMP:  66;

LADYSMITH      CLOUDY    58  52  80 NW16G25   29.89R
6HR MIN TEMP:  58; 6HR MAX TEMP:  67;

EAU CLAIRE     CLOUDY    59  52  77 W10       29.89R
6HR MIN TEMP:  59; 6HR MAX TEMP:  68; 6HR PCP: TRACE;

MENOMONIE      CLOUDY    58  56  90 W8        29.91S
6HR MIN TEMP:  58; 6HR MAX TEMP:  69;

NEW RICHMOND   CLOUDY    55  49  80 W8        29.94R
6HR MIN TEMP:  55; 6HR MAX TEMP:  66;

OSCEOLA        MOCLDY    58  49  72 W9        29.96S
6HR MIN TEMP:  58; 6HR MAX TEMP:  66; 6HR PCP:  0.02;

$$

WIZ003>005-009-010-017-018-240700-
NORTH CENTRAL WISCONSIN

CITY           SKY/WX    TMP DP  RH WIND       PRES   REMARKS
MANITOWISH WTR CLOUDY    56  53  88 NW7       29.82S
6HR MIN TEMP:  55; 6HR MAX TEMP:  65;

ARBOR VITAE    PTCLDY    57  51  80 NW7       29.82R
6HR MIN TEMP:  57; 6HR MAX TEMP:  64;

WOODRUFF       PTCLDY    57  51  80 NW7       29.82R
6HR MIN TEMP:  57; 6HR MAX TEMP:  64;

RHINELANDER    CLEAR     54  52  93 W8        29.82R
6HR MIN TEMP:  50; 6HR MAX TEMP:  66; 6HR PCP:  0.01;

EAGLE RIVER    PTCLDY    55  48  79 CALM      29.80S
6HR MIN TEMP:  51; 6HR MAX TEMP:  65;

LAND O LAKES   PTCLDY    56  50  80 W8        29.82R
6HR MIN TEMP:  51; 6HR MAX TEMP:  65;

PHILLIPS       CLOUDY    56  53  90 W6        29.84R
6HR MIN TEMP:  56; 6HR MAX TEMP:  66;

TOMAHAWK       NOT AVBL
MEDFORD        CLOUDY    57  52  84 NW9       29.86R
6HR MIN TEMP:  56; 6HR MAX TEMP:  65;

MERRILL        MOCLDY    56  54  93 W6        29.84R
6HR MIN TEMP:  56; 6HR MAX TEMP:  67;

$$

WIZ029-030-035-036-043>047-240700-
CENTRAL WISCONSIN

CITY           SKY/WX    TMP DP  RH WIND       PRES   REMARKS
WAUSAU         PTCLDY    58  52  80 W9        29.82R
6HR MIN TEMP:  58; 6HR MAX TEMP:  69; 6HR PCP: TRACE;

MOSINEE        CLOUDY    57  54  88 W8G16     29.85R
MARSHFIELD     CLOUDY    58  52  80 W9        29.85R
6HR MIN TEMP:  57; 6HR MAX TEMP:  67;

STEVENS POINT  PTCLDY    58  51  78 W8        29.84S
6HR MIN TEMP:  58; 6HR MAX TEMP:  67;

WAUPACA        CLEAR     61  54  77 W8        29.82S
6HR MIN TEMP:  61; 6HR MAX TEMP:  71;

WAUTOMA        PTCLDY    60  53  77 W10       29.84S
6HR MIN TEMP:  60; 6HR MAX TEMP:  69;

WISC RAPIDS    CLOUDY    60  53  77 NW12      29.86R
6HR MIN TEMP:  60; 6HR MAX TEMP:  70;

CAMP DOUGLAS   PTCLDY    58  53  84 W9        29.88R
6HR MIN TEMP:  57; 6HR MAX TEMP:  69;

$$

WIZ011>013-019>022-031-037>040-048>050-240700-
NORTHEAST WISCONSIN

CITY           SKY/WX    TMP DP  RH WIND       PRES   REMARKS
ANTIGO         PTCLDY    55  51  89 W9        29.82S
6HR MIN TEMP:  55; 6HR MAX TEMP:  65;

SHAWANO        CLEAR     60  52  75 W7        29.79R
6HR MIN TEMP:  60; 6HR MAX TEMP:  71;

OCONTO         CLEAR     52  50  92 SW3       29.77S
6HR MIN TEMP:  52; 6HR MAX TEMP:  71;

STURGEON BAY     N/A     61  52  72 W5          N/A
6HR MIN TEMP:  61; 6HR MAX TEMP:  71;

GREEN BAY      CLEAR     60  54  80 W8        29.79R
6HR MIN TEMP:  60; 6HR MAX TEMP:  71;

MANITOWOC      CLEAR     62  52  69 W8        29.79R
6HR MIN TEMP:  62; 6HR MAX TEMP:  72;

APPLETON       CLEAR     55  50  82 W7        29.79S
CLINTONVILLE   CLEAR     59  50  72 W7        29.80S
OSHKOSH        CLEAR     61  53  75 W6        29.81R
6HR MIN TEMP:  61; 6HR MAX TEMP:  71;

$$

WIZ032>034-041-042-053>061-240700-
SOUTHWEST WISCONSIN

CITY           SKY/WX    TMP DP  RH WIND       PRES   REMARKS
LA CROSSE      CLOUDY    68  55  63 NW15      29.91R
6HR MIN TEMP:  67; 6HR MAX TEMP:  76; 6HR PCP: TRACE;

SPARTA         CLOUDY    60  55  82 W5        29.90S
6HR MIN TEMP:  58; 6HR MAX TEMP:  70;

VIROQUA        PTCLDY    58  55  89 W6        29.92R
6HR MIN TEMP:  58; 6HR MAX TEMP:  69;

BOSCOBEL       PTCLDY    64  54  69 VRB3      29.91R
6HR MIN TEMP:  64; 6HR MAX TEMP:  73;

PRAIRIE DU CHI MOCLDY    62  53  72 W8        29.93R
6HR MIN TEMP:  62; 6HR MAX TEMP:  72;

PLATTEVILLE    CLEAR     61  57  87 W9        29.94R
6HR MIN TEMP:  60; 6HR MAX TEMP:  70;

$$

WIZ056-057-062-063-064-067-068-240700-
SOUTH CENTRAL WISCONSIN

CITY           SKY/WX    TMP DP  RH WIND       PRES   REMARKS
REEDSBURG      CLEAR     59  54  82 W5        29.88R
6HR MIN TEMP:  59; 6HR MAX TEMP:  69;

BARABOO/DELLS  CLEAR     59  52  78 W8        29.88R
6HR MIN TEMP:  58; 6HR MAX TEMP:  69;

LONE ROCK      PTCLDY    60  55  83 W6        29.90R
6HR MIN TEMP:  60; 6HR MAX TEMP:  71;

MINERAL POINT  CLEAR     61  55  82 W8        29.92R
MADISON        CLEAR     61  55  81 W5        29.87R
6HR MIN TEMP:  61; 6HR MAX TEMP:  71;

MIDDLETON      MOCLDY    60  55  84 W8        29.88S
6HR MIN TEMP:  59; 6HR MAX TEMP:  71;

WATERTOWN      CLEAR     60  56  87 W7        29.85R
6HR MIN TEMP:  60; 6HR MAX TEMP:  71;

MONROE         CLEAR     61  54  77 W14       29.90S
JANESVILLE     CLEAR     63  55  77 W10       29.87S
$$

WIZ051-052-058>065-066-070>072-240700-
SOUTHEAST WISCONSIN

CITY           SKY/WX    TMP DP  RH WIND       PRES   REMARKS
MILWAUKEE      CLEAR     66  55  67 W8        29.82R
6HR MIN TEMP:  66; 6HR MAX TEMP:  77;

WAUKESHA       CLEAR     59  52  77 W12       29.85R
MILWAUKEE/TIMM CLEAR     61  52  72 W8        29.84R
RACINE         CLEAR     63  54  72 W6        29.85R
6HR MIN TEMP:  63; 6HR MAX TEMP:  76;

KENOSHA        CLEAR     60  54  80 W8        29.84R
6HR MIN TEMP:  60; 6HR MAX TEMP:  76;

FOND DU LAC    PTCLDY    62  52  69 W9        29.82R
6HR MIN TEMP:  61; 6HR MAX TEMP:  70;

SHEBOYGAN      CLEAR     60  56  86 W6        29.80R
6HR MIN TEMP:  60; 6HR MAX TEMP:  73;

WEST BEND      CLEAR     61  54  77 W10       29.83R
JUNEAU         CLEAR     61  53  76 W5        29.86R
6HR MIN TEMP:  59; 6HR MAX TEMP:  70;

$$

LSZ147-162-240700-
LAKE SUPERIOR

STATION/POSITION TIME  TEMP    WIND        PRES    WAVE
                       AIR SEA DIR/SP/G            HT/PER
                 (UTC) (F)     (DEG/KT/KT) (MB)    (FT/S)
W MID LAKE BUOY  0550   46 39  280/ 12/ 12 1007.9R   1
DEVILS ISLAND    0600   53     250/ 14/ 15 1009.5R
SAXON HARBOR     0530   62     280/ 10/ 15 1009.1S
$$

LMZ867-665-643>646-240700-
LAKE MICHIGAN

STATION/POSITION TIME  TEMP    WIND        PRES    WAVE
                       AIR SEA DIR/SP/G            HT/PER
                 (UTC) (F)     (DEG/KT/KT) (MB)    (FT/S)
CHAMBERS ISLAND  0540   61     230/  3/  6 1007.1S
S GREEN BAY BUOY 0600   63     270/ 12/ 16 1007.9
N MID LAKE BUOY  0550   60 57  230/  6/  6 1007.5R   1
NORTHPORT PIER   0540


USA.gov is the U.S. government's official web portal to all federal, state and local government web resources and services.